map of CJC home
CJC - Airport
Location
City:  Calama, Antofagasta, Chile
Name:El Loa
ICAO:SCCF
IATA:CJC

Details
Type:Airport (Aerodrome, Airfield)
Use:Public/Civil
Latitude:2229'53"S (-22.498174)
Longitude:6854'13"W (-68.903574)
Datum:WGS 1984
Elevation:7543 ft (2299 m)
Variation:5.47W (WMM2015 magnetic declination)
-0.19 annual change
Runways:1
Longest:9478 × 98 ft (2889 × 30 m), paved

Time
Time Zone:UTC-4 (DST-3)
Local Time:

Weather
METAR:SCCF 191900Z 27020KT CAVOK 25/M00 Q1024
TAF:SCCF 191639Z 1918/2018 27020KT CAVOK TX25/1919Z TN08/2010Z
BECMG 2002/2004 23005KT
BECMG 2005/2007 11010KT
BECMG 2014/2015 27005KT
BECMG 2016/2018 27020KT

Related Locations
Nearby:
Farthest:WUZ: 12363 mi / 19897 km
Wuzhou [Changzhoudao], 45, CN

Find:

   beyond  
but within

Other Information
Maps:
NOTAMs:
Links:
Sources:

  
  • flag of Chile
  • flag of Antofagasta
  

Sectional Chart

Flight Planning
at skyvector.com

Satellite Image

Google Maps Satellite view

 

Copyright © 2004-2019 Karl L. Swartz. All rights reserved.
The Great Circle Mapper name and logo are trademarks of the Great Circle Mapper.
All other trademarks mentioned herein belong to their respective owners.
Please see credits for attibutions and further copyright information.

  Follow gcmap on Facebook Follow gcmap on Twitter Follow gcmap on Google+ GCmap on LinkedIn

hCard Microformat

Geo Microformat